Flag for Hungary

Past Weather in Budapest, Hungary — Yesterday and Last 2 Weeks

Now
66 °F

Clear.


Feels Like: 66 °F
Forecast: 81 / 55 °F
Wind: 8 mph from East

Location: Ferenc Liszt International Airport
Current Time: Sep 21, 2020 at 10:09:57 pm
Latest Report: Sep 21, 2020 at 9:30 pm
Visibility: 10 mi
Pressure30.07 "Hg
Humidity: 49%
Dew Point: 46 °F
Location of BudapestLocation

Past Weather in Budapest — Graph

°F

Budapest Temperature Yesterday

Maximum temperature yesterday: 75 °F (at 3:00 pm)
Minimum temperature yesterday: 48 °F (at 12:30 am)
Average temperature yesterday: 62 °F

High & Low Weather Summary for the Past Weeks

 TemperatureHumidityPressure
High88 °F (Sep 15, 4:00 pm)100% (Sep 12, 7:00 am)30.39 "Hg (Sep 12, 7:00 am)
Low43 °F (Sep 9, 6:00 am)15% (Sep 18, 3:30 pm)29.95 "Hg (Sep 6, 8:00 pm)
Average67 °F61%30.16 "Hg
* Reported Sep 6 8:00 pm — Sep 21 8:30 pm, Budapest. Weather by CustomWeather, © 2020

Note: Actual official high and low records may vary slightly from our data, if they occured in-between our weather recording intervals... More about our weather records

Budapest Weather History for the Previous 24 Hours

Scroll right to see more
 ConditionsComfort  
Time TempWeatherWind HumidityBarometerVisibility
8:30 pm
Mon, Sep 21
64 °FPassing clouds.3 mph52%30.07 "HgN/A
8:00 pm68 °FClear.5 mph46%30.07 "Hg10 mi
7:30 pm66 °FClear.3 mph46%30.07 "Hg10 mi
7:00 pm70 °FClear.6 mph43%30.07 "Hg10 mi
6:30 pm70 °FSunny.7 mph40%30.07 "Hg10 mi
6:00 pm75 °FSunny.8 mph34%30.07 "Hg10 mi
5:30 pm77 °FPassing clouds.9 mph32%30.07 "HgN/A
5:00 pm77 °FPassing clouds.10 mph32%30.07 "HgN/A
4:30 pm79 °FPassing clouds.10 mph28%30.07 "HgN/A
4:00 pm79 °FSunny.12 mph28%30.07 "Hg10 mi
3:30 pm79 °FSunny.12 mph24%30.09 "Hg10 mi
3:00 pm79 °FSunny.13 mph26%30.09 "Hg10 mi
2:30 pm79 °FSunny.12 mph24%30.09 "Hg10 mi
2:00 pm79 °FPassing clouds.12 mph26%30.09 "HgN/A
1:30 pm77 °FPassing clouds.12 mph30%30.09 "HgN/A
1:00 pm77 °FPassing clouds.10 mph30%30.09 "HgN/A
12:30 pm77 °FPassing clouds.12 mph30%30.12 "HgN/A
12:00 pm75 °FSunny.15 mph29%30.12 "Hg10 mi
11:30 am75 °FSunny.13 mph29%30.12 "Hg10 mi
11:00 am72 °FSunny.13 mph36%30.12 "Hg10 mi
10:30 am70 °FSunny.12 mph38%30.12 "Hg10 mi
10:00 am70 °FPassing clouds.13 mph38%30.12 "HgN/A
9:30 am68 °FSunny.7 mph43%30.12 "Hg10 mi
9:00 am66 °FSunny.6 mph49%30.12 "Hg10 mi
8:30 am63 °FSunny.No wind59%30.12 "Hg10 mi
7:30 am48 °FSunny.2 mph94%30.12 "Hg10 mi
7:00 am48 °FSunny.No wind94%30.09 "Hg10 mi
6:30 am48 °FSunny.2 mph87%30.09 "Hg10 mi
6:00 am48 °FClear.1 mph94%30.09 "Hg10 mi
5:30 am50 °FClear.2 mph88%30.09 "Hg10 mi
2:00 am61 °FPassing clouds.3 mph63%30.09 "HgN/A
1:30 am52 °FClear.2 mph82%30.09 "Hg10 mi
1:00 am57 °FClear.1 mph67%30.09 "Hg10 mi
12:30 am55 °FClear.No wind72%30.09 "Hg10 mi
12:00 am57 °FClear.1 mph67%30.07 "Hg10 mi
11:30 pm
Sun, Sep 20
59 °FClear.2 mph63%30.07 "Hg10 mi
11:00 pm59 °FClear.1 mph63%30.07 "Hg10 mi
10:30 pm57 °FClear.2 mph63%30.07 "Hg10 mi
10:00 pm61 °FClear.6 mph55%30.07 "Hg10 mi
Weather by CustomWeather, © 2020

See weather overview